NOAA 16 DEB, 41140

Orbit data source: Space-Track

NOAA 16 DEB, 41140 is space debris in SSO originally from a launch on Thu, 21 Sep 2000 UTC launched from the Air Force Western Test Range (AFWTR). Debris objects in space refer to the collection of defunct objects orbiting the Earth. Examples of debris include non-operational satellites, rocket bodies, and fragments generated from explosions, collisions, or faulty payload assembly.

Loading next visibility...
Identifier
41140, 2000-055BX
Orbit
SSO
Country
Flag of USUS
Related business
Manufacturer
Unknown
Mission
Spacecraft
Bus & Motor
Unknown
Mass
Unknown
Launch date (UTC)
2000-09-21 (25 years ago)
Launch vehicle
Unknown
Launch site
Air Force Western Test Range (AFWTR)
Object type
Payload
Rocket body
Debris
Shape & HBR
Unknown shape, 0.1 m
Radar Cross Section
Small (<0.1 m²)

Expand to show TLE details & history
Last TLE update: 3 days ago

TLE from 3 days ago
0 NOAA 16 DEB
1 41140U 00055BX  25290.96599687  .00049205  00000-0  72724-2 0  9991
2 41140  98.8533 111.7555 0031648 288.6044  71.1726 14.74658317517189
Epoch: 2025-10-17T23:11Z
TLE epoch observation values (Epoch: 2025-10-17T23:11:02.129Z)
Latitude
-0.00001°
Longitude
97.29284°
Altitude
642.108 km
Speed
7.541 km/s
True Right ascension
07h 27m 01s
True Declination
0° 00' 00"
Sunlit
Object was in daylight at epoch
Visualization orbit readout
Latitude
Unknown
Longitude
Unknown
Altitude
Unknown
Speed
Unknown
Apparent Right ascension
Unknown
Apparent Declination
Unknown
Sunlit
N/A
Visualization observer readout
Local Sidereal Time
11:40:52
Azimuth
Unknown
Elevation
Unknown
Doppler factor
Unknown
Orbital elements
Apogee altitude
665.551 km
Perigee altitude
621.108 km
Semi-major axis
7,021.466 km
Eccentricity
0.00316
Inclination
98.8533°
RAAN
111.7555°
Arg. of periapsis
288.6044°
True anomaly
71.51629°
Mean anomaly
71.1726°
Eccentric anomaly
71.3444°
Mean motion
3.68894 °/min
Orbital period
97.59 mins
BSTAR
0.0072724
Loading maneuver chart data...
Computing Atmospheric mass density...
Loading historical data...
Loading historical data...
Loading historical data...
Loading historical data...
Loading historical data...
Loading historical data...
Loading historical data...

Documentation

Showing up to 5 results
|